Flag for Monaco

Past Weather in Monaco, Monaco — Yesterday and Last 2 Weeks

Now
59 °F

Passing clouds.


Feels Like: 57 °F
Forecast: 67 / 55 °F
Wind: 12 mph from North

Location: Nice Airport
Current Time: Sep 28, 2020 at 1:16:37 am
Latest Report: Sep 28, 2020 at 12:30 am
Visibility: N/A
Pressure29.71 "Hg
Humidity: 59%
Dew Point: 45 °F
Location of MonacoLocation

Past Weather in Monaco — Graph

°F

Monaco Temperature Yesterday

Maximum temperature yesterday: 68 °F (at 1:00 pm)
Minimum temperature yesterday: 54 °F (at 7:00 am)
Average temperature yesterday: 61 °F

High & Low Weather Summary for the Past Weeks

 TemperatureHumidityPressure
High88 °F (Sep 14, 3:30 pm)100% (Sep 24, 4:30 pm)30.24 "Hg (Sep 24, 4:30 pm)
Low54 °F (Sep 27, 7:00 am)16% (Sep 26, 12:30 pm)29.42 "Hg (Sep 25, 2:30 pm)
Average72 °F62%29.92 "Hg
* Reported Sep 13 12:00 am — Sep 28 12:00 am, Monaco. Weather by CustomWeather, © 2020

Note: Actual official high and low records may vary slightly from our data, if they occured in-between our weather recording intervals... More about our weather records

Monaco Weather History for the Previous 24 Hours

Scroll right to see more
 ConditionsComfort  
Time TempWeatherWind HumidityBarometerVisibility
12:00 am
Mon, Sep 28
61 °FPassing clouds.13 mph55%29.71 "HgN/A
11:30 pm
Sun, Sep 27
61 °FLight rain. Partly cloudy.14 mph55%29.71 "HgN/A
11:00 pm63 °FPassing clouds.8 mph59%29.71 "HgN/A
10:30 pm63 °FPassing clouds.6 mph59%29.71 "HgN/A
10:00 pm63 °FPartly cloudy.9 mph56%29.71 "HgN/A
9:30 pm64 °FPartly cloudy.12 mph56%29.71 "HgN/A
9:00 pm63 °FPassing clouds.15 mph64%29.68 "HgN/A
8:30 pm64 °FPassing clouds.13 mph60%29.68 "HgN/A
8:00 pm64 °FPassing clouds.9 mph60%29.65 "HgN/A
7:30 pm64 °FPassing clouds.7 mph60%29.65 "HgN/A
7:00 pm64 °FPassing clouds.7 mph56%29.65 "HgN/A
6:30 pm64 °FPassing clouds.8 mph60%29.65 "HgN/A
6:00 pm64 °FPassing clouds.9 mph60%29.62 "HgN/A
5:30 pm64 °FPassing clouds.8 mph60%29.62 "HgN/A
5:00 pm64 °FPassing clouds.8 mph60%29.62 "HgN/A
4:30 pm64 °FPassing clouds.7 mph56%29.65 "HgN/A
4:00 pm64 °FPassing clouds.9 mph60%29.65 "HgN/A
3:30 pm66 °FPassing clouds.10 mph56%29.65 "HgN/A
3:00 pm66 °FPassing clouds.14 mph56%29.65 "HgN/A
2:30 pm66 °FPassing clouds.15 mph60%29.65 "HgN/A
2:00 pm68 °FPassing clouds.13 mph46%29.65 "HgN/A
1:30 pm68 °FPassing clouds.8 mph43%29.65 "HgN/A
1:00 pm68 °FPassing clouds.9 mph49%29.65 "HgN/A
12:30 pm66 °FScattered clouds.15 mph56%29.65 "HgN/A
12:00 pm66 °FScattered clouds.12 mph49%29.65 "HgN/A
11:30 am66 °FScattered clouds.12 mph52%29.65 "HgN/A
11:00 am64 °FScattered clouds.15 mph56%29.65 "HgN/A
10:30 am63 °FScattered clouds.13 mph56%29.65 "HgN/A
10:00 am61 °FPassing clouds.12 mph31%29.65 "HgN/A
9:30 am57 °FPassing clouds.9 mph36%29.62 "HgN/A
9:00 am55 °FPassing clouds.13 mph38%29.59 "HgN/A
8:30 am55 °FPassing clouds.15 mph36%29.59 "HgN/A
7:30 am54 °FPassing clouds.17 mph38%29.56 "HgN/A
7:00 am54 °FPassing clouds.16 mph41%29.56 "HgN/A
6:30 am55 °FPassing clouds.14 mph38%29.53 "HgN/A
6:00 am55 °FPassing clouds.14 mph38%29.53 "HgN/A
5:30 am55 °FPassing clouds.14 mph38%29.53 "HgN/A
5:00 am55 °FPassing clouds.15 mph38%29.53 "HgN/A
4:30 am55 °FClear.13 mph38%29.53 "Hg10 mi
4:00 am57 °FClear.14 mph33%29.53 "Hg10 mi
3:30 am57 °FClear.13 mph33%29.53 "Hg10 mi
3:00 am57 °FClear.12 mph36%29.56 "Hg10 mi
2:30 am57 °FClear.12 mph36%29.56 "Hg10 mi
2:00 am59 °FClear.12 mph34%29.56 "Hg10 mi
1:30 am57 °FClear.14 mph36%29.56 "Hg10 mi
1:00 am57 °FPassing clouds.7 mph36%29.56 "HgN/A
Weather by CustomWeather, © 2020

See weather overview